Time,TemperatureF,DewpointF,PressureIn,WindDirection,WindDirectionDegrees,WindSpeedMPH,WindSpeedGustMPH,Humidity,HourlyPrecipIn,Conditions,Clouds,dailyrainin,SoftwareType,DateUTC
2013-10-22 00:05:00,47.1,30.0,30.06,NNW,340,0.0,0.0,52,0.00,,,0.00,weatherlink.com 1.10,2013-10-22 06:05:00,
2013-10-22 00:21:00,46.3,32.0,30.06,SE,133,0.0,1.0,59,0.00,,,0.00,weatherlink.com 1.10,2013-10-22 06:21:00,
2013-10-22 00:36:00,45.0,30.0,30.06,SE,132,0.0,1.0,55,0.00,,,0.00,weatherlink.com 1.10,2013-10-22 06:36:00,
2013-10-22 00:51:00,44.1,28.0,30.06,SE,133,1.0,1.0,54,0.00,,,0.00,weatherlink.com 1.10,2013-10-22 06:51:00,
2013-10-22 01:06:00,44.1,30.0,30.06,SE,134,0.0,1.0,57,0.00,,,0.00,weatherlink.com 1.10,2013-10-22 07:06:00,
2013-10-22 01:21:00,44.9,29.0,30.07,SE,134,0.0,0.0,53,0.00,,,0.00,weatherlink.com 1.10,2013-10-22 07:21:00,
2013-10-22 01:36:00,44.1,28.0,30.07,SE,134,0.0,1.0,53,0.00,,,0.00,weatherlink.com 1.10,2013-10-22 07:36:00,
2013-10-22 01:51:00,42.6,27.0,30.07,SE,134,0.0,0.0,55,0.00,,,0.00,weatherlink.com 1.10,2013-10-22 07:51:00,
2013-10-22 02:06:00,44.3,31.0,30.08,SE,134,0.0,1.0,60,0.00,,,0.00,weatherlink.com 1.10,2013-10-22 08:06:00,
2013-10-22 02:21:00,44.3,29.0,30.08,SE,134,0.0,0.0,55,0.00,,,0.00,weatherlink.com 1.10,2013-10-22 08:21:00,
2013-10-22 02:36:00,44.4,32.0,30.09,SE,134,0.0,0.0,61,0.00,,,0.00,weatherlink.com 1.10,2013-10-22 08:36:00,
2013-10-22 02:51:00,45.9,32.0,30.09,SE,134,0.0,0.0,59,0.00,,,0.00,weatherlink.com 1.10,2013-10-22 08:51:00,
2013-10-22 03:06:00,45.3,31.0,30.09,SE,134,0.0,0.0,57,0.00,,,0.00,weatherlink.com 1.10,2013-10-22 09:06:00,
2013-10-22 03:21:00,46.1,31.0,30.09,SE,134,0.0,0.0,55,0.00,,,0.00,weatherlink.com 1.10,2013-10-22 09:21:00,
2013-10-22 03:36:00,42.3,28.0,30.08,SE,134,0.0,1.0,57,0.00,,,0.00,weatherlink.com 1.10,2013-10-22 09:36:00,
2013-10-22 03:51:00,42.7,30.0,30.08,SE,134,0.0,1.0,60,0.00,,,0.00,weatherlink.com 1.10,2013-10-22 09:51:00,
2013-10-22 04:06:00,42.5,29.0,30.09,SE,134,0.0,0.0,59,0.00,,,0.00,weatherlink.com 1.10,2013-10-22 10:06:00,
2013-10-22 04:21:00,43.1,29.0,30.09,SE,134,0.0,0.0,58,0.00,,,0.00,weatherlink.com 1.10,2013-10-22 10:21:00,
2013-10-22 04:36:00,43.1,29.0,30.09,SE,134,0.0,0.0,58,0.00,,,0.00,weatherlink.com 1.10,2013-10-22 10:36:00,
2013-10-22 04:51:00,39.2,28.0,30.10,SE,134,0.0,1.0,64,0.00,,,0.00,weatherlink.com 1.10,2013-10-22 10:51:00,
2013-10-22 05:06:00,39.7,27.0,30.11,NNW,327,0.0,1.0,61,0.00,,,0.00,weatherlink.com 1.10,2013-10-22 11:06:00,
2013-10-22 05:21:00,39.0,28.0,30.11,NNW,329,0.0,0.0,64,0.00,,,0.00,weatherlink.com 1.10,2013-10-22 11:21:00,
2013-10-22 05:36:00,37.9,27.0,30.12,NNW,336,0.0,2.0,64,0.00,,,0.00,weatherlink.com 1.10,2013-10-22 11:36:00,
2013-10-22 05:51:00,36.7,26.0,30.12,North,360,0.0,2.0,66,0.00,,,0.00,weatherlink.com 1.10,2013-10-22 11:51:00,
2013-10-22 06:06:00,36.9,27.0,30.13,NW,305,0.0,1.0,67,0.00,,,0.00,weatherlink.com 1.10,2013-10-22 12:06:00,
2013-10-22 06:21:00,36.4,26.0,30.13,North,351,0.0,1.0,67,0.00,,,0.00,weatherlink.com 1.10,2013-10-22 12:21:00,
2013-10-22 06:36:00,36.8,27.0,30.14,North,350,0.0,1.0,68,0.00,,,0.00,weatherlink.com 1.10,2013-10-22 12:36:00,
2013-10-22 06:51:00,37.4,27.0,30.14,North,349,0.0,1.0,67,0.00,,,0.00,weatherlink.com 1.10,2013-10-22 12:51:00,
2013-10-22 07:07:00,36.2,27.0,30.15,North,349,0.0,1.0,68,0.00,,,0.00,weatherlink.com 1.10,2013-10-22 13:07:00,
2013-10-22 07:21:00,37.1,28.0,30.16,North,349,0.0,1.0,70,0.00,,,0.00,weatherlink.com 1.10,2013-10-22 13:21:00,
2013-10-22 07:36:00,37.0,27.0,30.16,North,349,0.0,1.0,68,0.00,,,0.00,weatherlink.com 1.10,2013-10-22 13:36:00,
2013-10-22 07:52:00,38.7,28.0,30.16,NW,318,0.0,1.0,65,0.00,,,0.00,weatherlink.com 1.10,2013-10-22 13:52:00,
2013-10-22 08:07:00,40.2,28.0,30.17,NNE,16,0.0,3.0,62,0.00,,,0.00,weatherlink.com 1.10,2013-10-22 14:07:00,
2013-10-22 08:22:00,42.3,29.0,30.17,NW,312,0.0,1.0,59,0.00,,,0.00,weatherlink.com 1.10,2013-10-22 14:22:00,
2013-10-22 08:37:00,42.8,28.0,30.18,WNW,298,0.0,3.0,57,0.00,,,0.00,weatherlink.com 1.10,2013-10-22 14:37:00,
2013-10-22 08:52:00,42.2,28.0,30.18,NNW,338,3.0,5.0,57,0.00,,,0.00,weatherlink.com 1.10,2013-10-22 14:52:00,
2013-10-22 09:07:00,43.3,28.0,30.19,NNW,345,0.0,4.0,55,0.00,,,0.00,weatherlink.com 1.10,2013-10-22 15:07:00,
2013-10-22 09:22:00,45.0,28.0,30.20,North,4,1.0,4.0,52,0.00,,,0.00,weatherlink.com 1.10,2013-10-22 15:22:00,
2013-10-22 09:37:00,46.0,28.0,30.19,NNW,336,1.0,6.0,50,0.00,,,0.00,weatherlink.com 1.10,2013-10-22 15:37:00,
2013-10-22 09:52:00,48.4,29.0,30.19,NW,310,1.0,4.0,48,0.00,,,0.00,weatherlink.com 1.10,2013-10-22 15:52:00,
2013-10-22 10:07:00,49.7,29.0,30.20,NNW,344,1.0,4.0,45,0.00,,,0.00,weatherlink.com 1.10,2013-10-22 16:07:00,
2013-10-22 10:37:00,52.6,29.0,30.19,North,1,1.0,2.0,41,0.00,,,0.00,weatherlink.com 1.10,2013-10-22 16:37:00,
2013-10-22 10:52:00,54.3,30.0,30.19,NNW,340,0.0,3.0,39,0.00,,,0.00,weatherlink.com 1.10,2013-10-22 16:52:00,
2013-10-22 11:07:00,56.5,30.0,30.18,North,5,0.0,4.0,36,0.00,,,0.00,weatherlink.com 1.10,2013-10-22 17:07:00,
2013-10-22 11:22:00,58.1,29.0,30.18,NW,319,0.0,3.0,33,0.00,,,0.00,weatherlink.com 1.10,2013-10-22 17:22:00,
2013-10-22 11:38:00,58.8,29.0,30.18,SW,226,0.0,2.0,32,0.00,,,0.00,weatherlink.com 1.10,2013-10-22 17:38:00,
2013-10-22 11:52:00,60.7,30.0,30.17,SSW,207,0.0,3.0,32,0.00,,,0.00,weatherlink.com 1.10,2013-10-22 17:52:00,
2013-10-22 12:07:00,62.8,30.0,30.16,SSE,152,1.0,3.0,29,0.00,,,0.00,weatherlink.com 1.10,2013-10-22 18:07:00,
2013-10-22 12:22:00,62.9,29.0,30.16,SE,130,0.0,3.0,28,0.00,,,0.00,weatherlink.com 1.10,2013-10-22 18:22:00,
2013-10-22 12:37:00,63.2,29.0,30.15,SSW,205,1.0,4.0,27,0.00,,,0.00,weatherlink.com 1.10,2013-10-22 18:37:00,
2013-10-22 12:52:00,65.0,28.0,30.14,WNW,285,1.0,4.0,25,0.00,,,0.00,weatherlink.com 1.10,2013-10-22 18:52:00,
2013-10-22 13:07:00,65.7,29.0,30.13,ESE,102,3.0,3.0,25,0.00,,,0.00,weatherlink.com 1.10,2013-10-22 19:07:00,
2013-10-22 13:22:00,65.9,27.0,30.12,SW,231,2.0,3.0,23,0.00,,,0.00,weatherlink.com 1.10,2013-10-22 19:22:00,
2013-10-22 13:37:00,67.0,27.0,30.11,SW,221,0.0,2.0,22,0.00,,,0.00,weatherlink.com 1.10,2013-10-22 19:37:00,
2013-10-22 13:53:00,68.5,27.0,30.10,SSE,164,4.0,7.0,21,0.00,,,0.00,weatherlink.com 1.10,2013-10-22 19:53:00,
2013-10-22 14:08:00,67.3,25.0,30.09,SSE,148,0.0,4.0,20,0.00,,,0.00,weatherlink.com 1.10,2013-10-22 20:08:00,
2013-10-22 14:23:00,68.4,26.0,30.09,SW,231,1.0,4.0,20,0.00,,,0.00,weatherlink.com 1.10,2013-10-22 20:23:00,
2013-10-22 14:38:00,69.1,25.0,30.08,SW,229,2.0,4.0,19,0.00,,,0.00,weatherlink.com 1.10,2013-10-22 20:38:00,
2013-10-22 14:53:00,69.5,24.0,30.07,SW,232,2.0,4.0,18,0.00,,,0.00,weatherlink.com 1.10,2013-10-22 20:53:00,
2013-10-22 15:08:00,70.2,25.0,30.07,ESE,102,0.0,3.0,18,0.00,,,0.00,weatherlink.com 1.10,2013-10-22 21:08:00,
2013-10-22 15:23:00,71.0,24.0,30.06,SSE,150,0.0,3.0,17,0.00,,,0.00,weatherlink.com 1.10,2013-10-22 21:23:00,
2013-10-22 15:38:00,71.6,21.0,30.06,WSW,254,1.0,2.0,15,0.00,,,0.00,weatherlink.com 1.10,2013-10-22 21:38:00,
2013-10-22 15:53:00,72.1,20.0,30.05,SSE,149,2.0,3.0,14,0.00,,,0.00,weatherlink.com 1.10,2013-10-22 21:53:00,
2013-10-22 16:08:00,72.0,20.0,30.05,SW,221,2.0,3.0,14,0.00,,,0.00,weatherlink.com 1.10,2013-10-22 22:08:00,
2013-10-22 16:23:00,71.3,20.0,30.04,SE,145,0.0,2.0,14,0.00,,,0.00,weatherlink.com 1.10,2013-10-22 22:23:00,
2013-10-22 16:38:00,72.8,21.0,30.04,SW,232,1.0,2.0,14,0.00,,,0.00,weatherlink.com 1.10,2013-10-22 22:38:00,
2013-10-22 16:53:00,72.8,19.0,30.03,West,261,0.0,2.0,13,0.00,,,0.00,weatherlink.com 1.10,2013-10-22 22:53:00,
2013-10-22 17:08:00,72.8,19.0,30.03,South,172,0.0,3.0,13,0.00,,,0.00,weatherlink.com 1.10,2013-10-22 23:08:00,
2013-10-22 17:23:00,70.1,17.0,30.03,SE,125,1.0,4.0,13,0.00,,,0.00,weatherlink.com 1.10,2013-10-22 23:23:00,
2013-10-22 17:38:00,69.3,18.0,30.03,SSW,211,1.0,3.0,14,0.00,,,0.00,weatherlink.com 1.10,2013-10-22 23:38:00,
2013-10-22 17:53:00,68.9,21.0,30.03,SE,146,0.0,3.0,16,0.00,,,0.00,weatherlink.com 1.10,2013-10-22 23:53:00,
2013-10-22 18:08:00,66.6,19.0,30.03,SE,146,0.0,1.0,16,0.00,,,0.00,weatherlink.com 1.10,2013-10-23 00:08:00,
2013-10-22 18:23:00,64.5,25.0,30.03,SSE,148,0.0,0.0,22,0.00,,,0.00,weatherlink.com 1.10,2013-10-23 00:23:00,
2013-10-22 18:38:00,62.8,25.0,30.03,SSE,148,0.0,0.0,24,0.00,,,0.00,weatherlink.com 1.10,2013-10-23 00:38:00,
2013-10-22 18:53:00,61.9,28.0,30.03,SSE,148,0.0,0.0,28,0.00,,,0.00,weatherlink.com 1.10,2013-10-23 00:53:00,
2013-10-22 19:08:00,62.0,28.0,30.03,SSE,148,0.0,0.0,28,0.00,,,0.00,weatherlink.com 1.10,2013-10-23 01:08:00,
2013-10-22 19:23:00,61.6,26.0,30.03,SSE,148,0.0,0.0,26,0.00,,,0.00,weatherlink.com 1.10,2013-10-23 01:23:00,
2013-10-22 19:38:00,61.5,26.0,30.03,SSE,148,0.0,1.0,26,0.00,,,0.00,weatherlink.com 1.10,2013-10-23 01:38:00,
2013-10-22 19:53:00,59.4,29.0,30.03,SSE,148,0.0,1.0,32,0.00,,,0.00,weatherlink.com 1.10,2013-10-23 01:53:00,
2013-10-22 20:08:00,59.4,26.0,30.04,East,79,1.0,1.0,28,0.00,,,0.00,weatherlink.com 1.10,2013-10-23 02:08:00,
2013-10-22 20:23:00,58.3,25.0,30.04,ESE,103,1.0,1.0,28,0.00,,,0.00,weatherlink.com 1.10,2013-10-23 02:23:00,
2013-10-22 20:38:00,58.2,27.0,30.04,SE,133,0.0,1.0,30,0.00,,,0.00,weatherlink.com 1.10,2013-10-23 02:38:00,
2013-10-22 20:53:00,57.1,25.0,30.04,SE,132,0.0,1.0,29,0.00,,,0.00,weatherlink.com 1.10,2013-10-23 02:53:00,
2013-10-22 21:08:00,56.5,24.0,30.05,ESE,117,0.0,1.0,29,0.00,,,0.00,weatherlink.com 1.10,2013-10-23 03:08:00,
2013-10-22 21:23:00,54.1,23.0,30.05,ESE,117,1.0,1.0,30,0.00,,,0.00,weatherlink.com 1.10,2013-10-23 03:23:00,
2013-10-22 21:38:00,54.6,24.0,30.05,ESE,117,0.0,0.0,30,0.00,,,0.00,weatherlink.com 1.10,2013-10-23 03:38:00,
2013-10-22 21:53:00,53.7,26.0,30.06,ESE,117,0.0,0.0,35,0.00,,,0.00,weatherlink.com 1.10,2013-10-23 03:53:00,
2013-10-22 22:08:00,53.3,25.0,30.06,ESE,117,0.0,0.0,34,0.00,,,0.00,weatherlink.com 1.10,2013-10-23 04:08:00,
2013-10-22 22:23:00,54.7,27.0,30.06,ESE,117,0.0,0.0,35,0.00,,,0.00,weatherlink.com 1.10,2013-10-23 04:23:00,
2013-10-22 22:38:00,52.9,24.0,30.06,ESE,117,0.0,0.0,33,0.00,,,0.00,weatherlink.com 1.10,2013-10-23 04:38:00,
2013-10-22 22:53:00,50.0,23.0,30.07,ESE,117,0.0,0.0,35,0.00,,,0.00,weatherlink.com 1.10,2013-10-23 04:53:00,
2013-10-22 23:08:00,53.1,27.0,30.07,ESE,117,0.0,1.0,36,0.00,,,0.00,weatherlink.com 1.10,2013-10-23 05:08:00,
2013-10-22 23:23:00,50.1,23.0,30.07,ESE,117,0.0,0.0,35,0.00,,,0.00,weatherlink.com 1.10,2013-10-23 05:23:00,
2013-10-22 23:38:00,49.5,24.0,30.07,ESE,117,0.0,1.0,37,0.00,,,0.00,weatherlink.com 1.10,2013-10-23 05:38:00,
2013-10-22 23:53:00,49.7,27.0,30.07,ESE,117,0.0,0.0,41,0.00,,,0.00,weatherlink.com 1.10,2013-10-23 05:53:00,